UAL6612 KLAX-KSAN

Flight info

Callsign UAL6612
Flight time 0h 29m
Altitude 13000
Route LAXX1 SLI JARRD V25 REDIN V165 SARGS SHAMU1
Aircraft B77W/M-V/N

Departure

Time 2026-04-22 01:30
Airport Los Angeles International Airport (KLAX)

Arrival

Time 2026-04-22 02:00
Airport San Diego International Airport (KSAN)
Time Latitude Longitude Altitude Speed Heading
2026-04-22 00:53 33.94027 -118.39999 123 ft 0 kts 50°
2026-04-22 01:08 33.94028 -118.39999 123 ft 0 kts 50°
2026-04-22 01:08 33.94028 -118.39998 123 ft 0 kts 50°
2026-04-22 01:09 33.94028 -118.39997 123 ft 0 kts 50°
2026-04-22 01:09 33.94029 -118.39997 123 ft 0 kts 50°
2026-04-22 01:10 33.94029 -118.39996 123 ft 0 kts 50°
2026-04-22 01:11 33.94030 -118.39996 123 ft 0 kts 50°
2026-04-22 01:12 33.94030 -118.39995 123 ft 0 kts 50°
2026-04-22 01:13 33.94030 -118.39994 123 ft 0 kts 50°
2026-04-22 01:13 33.94031 -118.39994 123 ft 0 kts 50°
2026-04-22 01:13 33.94031 -118.39993 123 ft 0 kts 50°
2026-04-22 01:14 33.94031 -118.39992 123 ft 0 kts 50°
2026-04-22 01:15 33.94032 -118.39992 123 ft 0 kts 50°
2026-04-22 01:16 33.94032 -118.39991 123 ft 0 kts 50°
2026-04-22 01:16 33.94033 -118.39991 123 ft 0 kts 50°
2026-04-22 01:17 33.94033 -118.39990 123 ft 0 kts 50°
2026-04-22 01:17 33.94033 -118.39991 123 ft 1 kts 50°
2026-04-22 01:17 33.94029 -118.39997 123 ft 0 kts 50°
2026-04-22 01:18 33.94018 -118.40011 123 ft 3 kts 51°
2026-04-22 01:18 33.94014 -118.40018 123 ft 0 kts 60°
2026-04-22 01:19 33.94010 -118.40032 124 ft 2 kts 87°
2026-04-22 01:19 33.94014 -118.40052 124 ft 3 kts 122°
2026-04-22 01:19 33.94030 -118.40069 124 ft 3 kts 153°
2026-04-22 01:19 33.94055 -118.40077 124 ft 4 kts 174°
2026-04-22 01:20 33.94072 -118.40079 123 ft 0 kts 174°
2026-04-22 01:22 33.94054 -118.40076 124 ft 5 kts 174°
2026-04-22 01:22 33.94024 -118.40073 124 ft 2 kts 173°
2026-04-22 01:23 33.93992 -118.40067 124 ft 6 kts 174°
2026-04-22 01:23 33.93984 -118.40067 124 ft 2 kts 174°
2026-04-22 01:23 33.93917 -118.40049 124 ft 17 kts 150°
2026-04-22 01:23 33.93887 -118.39930 122 ft 18 kts 82°
2026-04-22 01:24 33.93905 -118.39745 118 ft 24 kts 84°
2026-04-22 01:24 33.93925 -118.39539 117 ft 24 kts 83°
2026-04-22 01:24 33.93948 -118.39323 114 ft 26 kts 83°
2026-04-22 01:24 33.93970 -118.39094 112 ft 28 kts 84°
2026-04-22 01:25 33.93997 -118.38842 110 ft 31 kts 82°
2026-04-22 01:25 33.94025 -118.38577 110 ft 32 kts 83°
2026-04-22 01:25 33.94049 -118.38329 107 ft 13 kts 83°
2026-04-22 01:25 33.94054 -118.38286 107 ft 0 kts 83°
2026-04-22 01:27 33.94056 -118.38271 107 ft 7 kts 83°
2026-04-22 01:27 33.94067 -118.38168 107 ft 14 kts 83°
2026-04-22 01:27 33.94075 -118.38084 107 ft 2 kts 84°
2026-04-22 01:27 33.94073 -118.38057 107 ft 4 kts 103°
2026-04-22 01:28 33.94053 -118.38019 107 ft 6 kts 142°
2026-04-22 01:28 33.94033 -118.38009 107 ft 0 kts 169°
2026-04-22 01:28 33.93989 -118.38045 107 ft 12 kts 242°
2026-04-22 01:28 33.93975 -118.38121 107 ft 8 kts 261°
2026-04-22 01:29 33.93967 -118.38190 107 ft 6 kts 264°
2026-04-22 01:29 33.93967 -118.38193 107 ft 0 kts 264°
2026-04-22 01:30 33.93966 -118.38209 107 ft 12 kts 264°
2026-04-22 01:30 33.93919 -118.38660 111 ft 94 kts 263°
2026-04-22 01:30 33.93815 -118.39683 253 ft 139 kts 263°
2026-04-22 01:30 33.93715 -118.40881 755 ft 158 kts 264°
2026-04-22 01:31 33.93599 -118.42409 1372 ft 209 kts 264°
2026-04-22 01:31 33.93451 -118.44336 1969 ft 258 kts 265°
2026-04-22 01:31 33.93279 -118.46481 2489 ft 251 kts 264°
2026-04-22 01:31 33.93106 -118.48544 2954 ft 244 kts 264°
2026-04-22 01:32 33.92931 -118.50557 3413 ft 242 kts 264°
2026-04-22 01:32 33.92757 -118.52559 3900 ft 241 kts 264°
2026-04-22 01:32 33.92588 -118.54582 4716 ft 242 kts 264°
2026-04-22 01:32 33.92331 -118.56577 5570 ft 246 kts 251°
2026-04-22 01:33 33.91386 -118.58255 6415 ft 248 kts 223°
2026-04-22 01:33 33.89850 -118.59156 7251 ft 255 kts 197°
2026-04-22 01:33 33.88085 -118.59493 8134 ft 260 kts 193°
2026-04-22 01:33 33.86276 -118.59749 9017 ft 269 kts 192°
2026-04-22 01:34 33.84399 -118.59991 9897 ft 273 kts 192°
2026-04-22 01:34 33.82497 -118.60214 10763 ft 279 kts 192°
2026-04-22 01:34 33.80474 -118.60449 11473 ft 307 kts 192°
2026-04-22 01:34 33.78220 -118.60729 11898 ft 345 kts 192°
2026-04-22 01:35 33.75747 -118.61046 12289 ft 364 kts 191°
2026-04-22 01:35 33.73194 -118.61087 12676 ft 376 kts 181°
2026-04-22 01:35 33.70601 -118.60519 12936 ft 381 kts 171°
2026-04-22 01:35 33.68056 -118.59339 12970 ft 393 kts 159°
2026-04-22 01:36 33.65715 -118.57576 12975 ft 398 kts 148°
2026-04-22 01:36 33.63676 -118.55307 12964 ft 406 kts 137°
2026-04-22 01:36 33.61989 -118.52575 12953 ft 411 kts 126°
2026-04-22 01:36 33.60717 -118.49447 12984 ft 415 kts 114°
2026-04-22 01:37 33.59933 -118.46077 12952 ft 420 kts 103°
2026-04-22 01:37 33.59662 -118.42598 12971 ft 425 kts 93°
2026-04-22 01:37 33.59671 -118.39044 12975 ft 425 kts 91°
2026-04-22 01:37 33.59700 -118.35497 12981 ft 425 kts 91°
2026-04-22 01:38 33.59725 -118.31980 12994 ft 425 kts 91°
2026-04-22 01:38 33.59740 -118.28421 12966 ft 423 kts 94°
2026-04-22 01:38 33.59409 -118.24912 12988 ft 422 kts 104°
2026-04-22 01:38 33.58587 -118.21548 12967 ft 419 kts 115°
2026-04-22 01:39 33.57317 -118.18446 12974 ft 416 kts 125°
2026-04-22 01:39 33.55687 -118.15620 12978 ft 411 kts 131°
2026-04-22 01:39 33.53981 -118.12869 12976 ft 409 kts 131°
2026-04-22 01:39 33.52289 -118.10154 12981 ft 408 kts 131°
2026-04-22 01:40 33.50598 -118.07441 12976 ft 408 kts 131°
2026-04-22 01:40 33.48894 -118.04710 13002 ft 408 kts 131°
2026-04-22 01:40 33.47201 -118.02000 12975 ft 407 kts 131°
2026-04-22 01:40 33.45496 -117.99272 12972 ft 407 kts 131°
2026-04-22 01:41 33.43811 -117.96578 13000 ft 407 kts 131°
2026-04-22 01:41 33.42113 -117.93864 12980 ft 406 kts 131°
2026-04-22 01:41 33.40410 -117.91146 12970 ft 407 kts 131°
2026-04-22 01:41 33.38707 -117.88429 12979 ft 407 kts 131°
2026-04-22 01:42 33.37016 -117.85734 12980 ft 408 kts 131°
2026-04-22 01:42 33.35315 -117.83024 12973 ft 409 kts 131°
2026-04-22 01:42 33.33622 -117.80328 12986 ft 408 kts 131°
2026-04-22 01:42 33.31900 -117.77590 12980 ft 407 kts 131°
2026-04-22 01:43 33.30212 -117.74906 12984 ft 408 kts 131°
2026-04-22 01:43 33.28507 -117.72199 12970 ft 408 kts 131°
2026-04-22 01:43 33.26803 -117.69494 13000 ft 408 kts 131°
2026-04-22 01:43 33.25099 -117.66791 12977 ft 407 kts 131°
2026-04-22 01:44 33.23381 -117.64069 12988 ft 407 kts 131°
2026-04-22 01:44 33.21688 -117.61388 12980 ft 407 kts 131°
2026-04-22 01:44 33.19974 -117.58674 12980 ft 406 kts 131°
2026-04-22 01:44 33.18267 -117.55976 12989 ft 406 kts 131°
2026-04-22 01:45 33.16581 -117.53311 12996 ft 407 kts 131°
2026-04-22 01:45 33.14857 -117.50588 12988 ft 407 kts 131°
2026-04-22 01:45 33.13157 -117.47907 12995 ft 406 kts 131°
2026-04-22 01:45 33.11462 -117.45233 12996 ft 406 kts 131°
2026-04-22 01:46 33.09750 -117.42535 12995 ft 406 kts 131°
2026-04-22 01:46 33.08033 -117.39838 12899 ft 407 kts 132°
2026-04-22 01:46 33.06218 -117.37254 12602 ft 405 kts 133°
2026-04-22 01:46 33.04497 -117.34627 12218 ft 396 kts 132°
2026-04-22 01:47 33.02838 -117.32052 11718 ft 386 kts 132°
2026-04-22 01:47 33.01249 -117.29579 11234 ft 371 kts 132°
2026-04-22 01:47 32.99722 -117.27194 10754 ft 357 kts 132°
2026-04-22 01:47 32.98243 -117.24885 10268 ft 339 kts 132°
2026-04-22 01:48 32.96858 -117.22700 9801 ft 329 kts 131°
2026-04-22 01:48 32.95467 -117.20531 9375 ft 328 kts 132°
2026-04-22 01:48 32.94087 -117.18394 8891 ft 329 kts 132°
2026-04-22 01:48 32.92687 -117.16244 8396 ft 327 kts 131°
2026-04-22 01:49 32.91286 -117.14112 7904 ft 326 kts 132°
2026-04-22 01:49 32.89898 -117.12012 7418 ft 325 kts 131°
2026-04-22 01:49 32.88509 -117.09923 6862 ft 314 kts 131°
2026-04-22 01:49 32.87219 -117.07903 6384 ft 305 kts 123°
2026-04-22 01:50 32.86232 -117.05696 5902 ft 296 kts 120°
2026-04-22 01:50 32.85292 -117.03557 5423 ft 288 kts 120°
2026-04-22 01:50 32.84378 -117.01495 5065 ft 276 kts 120°
2026-04-22 01:50 32.83510 -116.99544 5009 ft 260 kts 120°
2026-04-22 01:51 32.82675 -116.97673 5010 ft 250 kts 120°
2026-04-22 01:51 32.81868 -116.95867 5015 ft 246 kts 120°
2026-04-22 01:51 32.81090 -116.94119 5001 ft 230 kts 120°
2026-04-22 01:51 32.80364 -116.92458 4892 ft 221 kts 120°
2026-04-22 01:52 32.79664 -116.90851 4725 ft 215 kts 120°
2026-04-22 01:52 32.78992 -116.89317 4580 ft 210 kts 120°
2026-04-22 01:52 32.78287 -116.87794 4436 ft 208 kts 130°
2026-04-22 01:52 32.77135 -116.86805 4285 ft 203 kts 167°
2026-04-22 01:53 32.75796 -116.86821 4117 ft 189 kts 205°
2026-04-22 01:53 32.74788 -116.87775 3967 ft 185 kts 234°
2026-04-22 01:53 32.74034 -116.88980 3817 ft 181 kts 237°
2026-04-22 01:53 32.73280 -116.90181 3655 ft 181 kts 237°
2026-04-22 01:54 32.72530 -116.91378 3463 ft 180 kts 237°
2026-04-22 01:54 32.71777 -116.92581 3266 ft 181 kts 237°
2026-04-22 01:54 32.71016 -116.93787 3076 ft 181 kts 237°
2026-04-22 01:54 32.70333 -116.95029 2908 ft 180 kts 245°
2026-04-22 01:55 32.69817 -116.96395 2718 ft 179 kts 252°
2026-04-22 01:55 32.69470 -116.97810 2533 ft 178 kts 259°
2026-04-22 01:55 32.69294 -116.99252 2378 ft 176 kts 267°
2026-04-22 01:55 32.69289 -117.00698 2250 ft 175 kts 274°
2026-04-22 01:56 32.69452 -117.02121 2121 ft 175 kts 282°
2026-04-22 01:56 32.69772 -117.03519 2000 ft 175 kts 286°
2026-04-22 01:56 32.70108 -117.04881 1878 ft 167 kts 286°
2026-04-22 01:56 32.70425 -117.06168 1721 ft 158 kts 286°
2026-04-22 01:57 32.70724 -117.07382 1568 ft 148 kts 286°
2026-04-22 01:57 32.71001 -117.08524 1419 ft 142 kts 284°
2026-04-22 01:57 32.71239 -117.09636 1262 ft 136 kts 284°
2026-04-22 01:57 32.71469 -117.10704 1071 ft 128 kts 283°
2026-04-22 01:58 32.71656 -117.11700 925 ft 123 kts 282°
2026-04-22 01:58 32.71875 -117.12732 886 ft 129 kts 284°
2026-04-22 01:58 32.72127 -117.13780 791 ft 133 kts 284°
2026-04-22 01:58 32.72356 -117.14831 614 ft 127 kts 284°
2026-04-22 01:59 32.72596 -117.15844 456 ft 129 kts 285°
2026-04-22 01:59 32.72850 -117.16861 284 ft 129 kts 285°
2026-04-22 01:59 32.73098 -117.17891 79 ft 128 kts 284°
2026-04-22 01:59 32.73325 -117.18834 31 ft 102 kts 286°
2026-04-22 02:00 32.73480 -117.19482 31 ft 49 kts 286°
2026-04-22 02:00 32.73533 -117.19763 27 ft 23 kts 262°
2026-04-22 02:00 32.73505 -117.19860 27 ft 7 kts 249°
2026-04-22 02:00 32.73494 -117.19892 27 ft 2 kts 250°
2026-04-22 02:01 32.73493 -117.19961 27 ft 13 kts 281°
2026-04-22 02:01 32.73500 -117.19997 27 ft 5 kts 272°
2026-04-22 02:01 32.73462 -117.20051 27 ft 10 kts 205°
2026-04-22 02:01 32.73428 -117.20072 27 ft 0 kts 211°